TimeAST,TemperatureF,Dew PointF,Humidity,Sea Level PressureIn,VisibilityMPH,Wind Direction,Wind SpeedMPH,Gust SpeedMPH,PrecipitationIn,Events,Conditions,WindDirDegrees,DateUTC
12:00 AM,80.6,71.6,74,29.98,6.2,East,8.1,-,N/A,,Partly Cloudy,90,2013-03-29 04:00:00
1:00 AM,78.8,71.6,78,29.98,6.2,East,5.8,-,N/A,,Partly Cloudy,90,2013-03-29 05:00:00
2:00 AM,78.8,71.6,78,29.95,6.2,Calm,Calm,-,N/A,,Partly Cloudy,0,2013-03-29 06:00:00
3:00 AM,77.0,71.6,83,29.95,6.2,Calm,Calm,-,N/A,,Partly Cloudy,0,2013-03-29 07:00:00
5:00 AM,77.0,71.6,83,29.95,6.2,Calm,Calm,-,N/A,,Scattered Clouds,0,2013-03-29 09:00:00
6:00 AM,77.0,71.6,83,29.95,6.2,Calm,Calm,-,N/A,,Partly Cloudy,0,2013-03-29 10:00:00
7:00 AM,77.0,71.6,83,29.98,6.2,Calm,Calm,-,N/A,,Partly Cloudy,0,2013-03-29 11:00:00
8:00 AM,82.4,75.2,79,30.01,6.2,East,15.0,-,N/A,,Partly Cloudy,90,2013-03-29 12:00:00
9:00 AM,84.2,73.4,70,30.01,6.2,ENE,13.8,-,N/A,,Scattered Clouds,70,2013-03-29 13:00:00
10:00 AM,86.0,73.4,66,30.04,6.2,East,16.1,-,N/A,,Partly Cloudy,80,2013-03-29 14:00:00
12:00 PM,86.0,73.4,66,30.01,6.2,ESE,18.4,-,N/A,,Scattered Clouds,110,2013-03-29 16:00:00
1:00 PM,86.0,75.2,70,30.01,6.2,East,16.1,-,N/A,,Partly Cloudy,90,2013-03-29 17:00:00
2:00 PM,87.8,73.4,62,29.98,6.2,East,18.4,-,N/A,,Partly Cloudy,100,2013-03-29 18:00:00
3:00 PM,86.0,75.2,70,29.95,6.2,East,17.3,-,N/A,,Scattered Clouds,90,2013-03-29 19:00:00
4:00 PM,84.2,73.4,70,29.95,6.2,ESE,16.1,-,N/A,,Partly Cloudy,110,2013-03-29 20:00:00
5:00 PM,84.2,73.4,70,29.95,6.2,ESE,16.1,-,N/A,,Scattered Clouds,110,2013-03-29 21:00:00
6:00 PM,82.4,73.4,74,29.95,6.2,East,12.7,-,N/A,,Scattered Clouds,100,2013-03-29 22:00:00
7:00 PM,80.6,71.6,74,29.95,6.2,East,11.5,-,N/A,,Partly Cloudy,90,2013-03-29 23:00:00
8:00 PM,82.4,73.4,74,29.98,6.2,East,9.2,-,N/A,,Partly Cloudy,80,2013-03-30 00:00:00
9:00 PM,80.6,69.8,70,30.01,6.2,East,11.5,-,N/A,,Partly Cloudy,90,2013-03-30 01:00:00
10:00 PM,80.6,71.6,74,30.01,6.2,East,9.2,-,N/A,,Partly Cloudy,90,2013-03-30 02:00:00
11:00 PM,80.6,71.6,74,30.04,6.2,ENE,11.5,-,N/A,,Partly Cloudy,60,2013-03-30 03:00:00